Location: Adrasan
(36.3319°N, 30.4314°E)
Time: 02:30:45
(UTC+00:00)

COSMO-SKYMED 1 - Pass Details

Date: 17 October 2025
Orbit: 580 x 582 km, 97.9° (Epoch: 13 November)

Event Time Altitude Azimuth Distance (km) Brightness Sun altitude
Rises 16:04:11 0° 14° (NNE) 2,807 5.7 -9.7°
Reaches altitude 10° 16:06:21 10° 17° (NNE) 1,902 4.9 -10.2°
Maximum altitude 16:10:28 71° 102° (ESE) 616 2.3 -11.0°
Drops below altitude 10° 16:14:33 10° 186° (S) 1,887 5.2 -11.8°
Sets 16:16:41 0° 189° (S) 2,781 6.1 -12.3°
